Home   Weather   City of Melbourne   Past weeks
Flag for USA

Past Weather in City of Melbourne, Kentucky, USA — Yesterday and Last 2 Weeks

Now
65 °F

Scattered clouds.


Feels Like: 65 °F
Forecast: 71 / 56 °F
Wind: 13 mph from Southeast

Location: Cincinnati Municipal Airport Lunken Field

Current Time: Oct 21, 2019 at 12:06:34 pm

Latest Report: Oct 21, 2019 at 10:53 am


Visibility: 10 mi

Pressure: 29.82 "Hg

Humidity: 78%

Dew Point: 58 °F

Location of City of MelbourneLocation

Past Weather in City of Melbourne — Graph

°F

City of Melbourne Temperature Yesterday

Maximum temperature yesterday: 75 °F (at 3:53 pm)
Minimum temperature yesterday: 51 °F (at 5:53 am)
Average temperature yesterday: 61 °F

High & Low Weather Summary for the Past Weeks

 TemperatureHumidityPressure
High80 °F (Oct 10, 3:53 pm)100% (Oct 7, 8:53 pm)30.27 "Hg (Oct 7, 8:53 pm)
Low33 °F (Oct 13, 6:24 am)28% (Oct 13, 4:53 pm)29.70 "Hg (Oct 16, 3:53 am)
Average54 °F79%30.05 "Hg
* Reported Oct 6 10:53 am — Oct 21 10:53 am, City of Melbourne. Weather by CustomWeather, © 2019

Note: Actual official high and low records may vary slightly from our data, if they occured in-between our weather recording intervals... More about our weather records

Advertising

City of Melbourne Weather History for the Previous 24 Hours

Scroll right to see more
 ConditionsComfort  
Time TempWeatherWind HumidityBarometerVisibility
10:53 am
Mon, Oct 21
65 °FScattered clouds.13 mph78%29.82 "Hg10 mi
9:53 am61 °FScattered clouds.10 mph87%29.85 "Hg10 mi
8:53 am60 °FPartly sunny.6 mph90%29.88 "Hg10 mi
7:53 am59 °FLow clouds.7 mph93%29.89 "Hg10 mi
7:11 am55 °FLow clouds.No wind96%29.90 "Hg7 mi
6:53 am52 °FLow clouds.No wind100%29.90 "Hg7 mi
6:30 am52 °FFog.No wind100%29.91 "Hg3 mi
6:22 am52 °FFog.No wind100%29.91 "Hg1 mi
6:10 am51 °FFog.No wind96%29.90 "Hg1 mi
5:38 am52 °FFog.3 mph100%29.90 "Hg1 mi
4:53 am49 °FFog.No wind100%29.90 "Hg4 mi
4:11 am50 °FFog.3 mph100%29.90 "Hg1 mi
4:07 am51 °FFog.No wind100%29.90 "Hg2 mi
3:44 am51 °FFog.No wind100%29.91 "Hg0 mi
3:21 am52 °FFog.No wind100%29.92 "Hg1 mi
3:14 am52 °FFog.No wind100%29.92 "Hg1 mi
3:00 am52 °FFog.No wind100%29.93 "Hg1 mi
2:33 am53 °FFog.3 mph100%29.94 "Hg1 mi
2:06 am54 °FFog.3 mph100%29.95 "Hg2 mi
2:00 am53 °FFog.3 mph96%29.95 "Hg1 mi
1:37 am54 °FFog.No wind100%29.96 "Hg1 mi
1:23 am54 °FFog.No wind100%29.96 "Hg2 mi
12:53 am61 °FClear.No wind87%29.95 "Hg10 mi
11:53 pm
Sun, Oct 20
59 °FClear.3 mph93%29.96 "Hg10 mi
10:53 pm61 °FPassing clouds.No wind87%29.97 "Hg10 mi
9:53 pm61 °FClear.No wind87%29.95 "Hg10 mi
8:53 pm63 °FPassing clouds.No wind81%29.94 "Hg10 mi
7:53 pm62 °FPassing clouds.No wind80%29.91 "Hg10 mi
6:53 pm67 °FPassing clouds.6 mph68%29.89 "Hg10 mi
5:53 pm72 °FScattered clouds.5 mph57%29.88 "Hg10 mi
4:53 pm74 °FScattered clouds.7 mph52%29.88 "Hg10 mi
3:53 pm75 °FSunny.No wind45%29.88 "Hg10 mi
2:53 pm74 °FSunny.3 mph48%29.88 "Hg8 mi
1:53 pm72 °FSunny.No wind52%29.89 "Hg10 mi
12:53 pm69 °FSunny.No wind66%29.90 "Hg10 mi
Weather by CustomWeather, © 2019

See weather overview